Time,TemperatureF,DewpointF,PressureIn,WindDirection,WindDirectionDegrees,WindSpeedMPH,WindSpeedGustMPH,Humidity,HourlyPrecipIn,Conditions,Clouds,dailyrainin,SoftwareType,DateUTC
2013-03-29 00:00:00,61.0,0.0,30.00,SW,228,9.0,15.0,30,-99.99,,,-99.99,,2013-03-29 07:00:00,
2013-03-29 00:08:00,59.0,0.0,30.00,West,261,5.0,10.0,32,-99.99,,,-99.99,,2013-03-29 07:08:00,
2013-03-29 00:20:00,59.0,0.0,30.00,West,280,5.0,13.0,34,-99.99,,,-99.99,,2013-03-29 07:20:00,
2013-03-29 00:28:00,57.0,0.0,30.01,NE,47,8.0,9.0,34,-99.99,,,-99.99,,2013-03-29 07:28:00,
2013-03-29 00:36:00,60.0,0.0,30.01,SW,228,5.0,9.0,32,-99.99,,,-99.99,,2013-03-29 07:36:00,
2013-03-29 00:44:00,60.0,0.0,30.01,SW,228,5.0,9.0,32,-99.99,,,-99.99,,2013-03-29 07:44:00,
2013-03-29 00:52:00,55.0,0.0,30.01,West,259,6.0,8.0,37,-99.99,,,-99.99,,2013-03-29 07:52:00,
2013-03-29 01:00:00,53.0,0.0,30.01,NNW,337,3.0,6.0,36,-99.99,,,-99.99,,2013-03-29 08:00:00,
2013-03-29 01:08:00,52.0,0.0,30.02,NW,308,0.0,5.0,35,-99.99,,,-99.99,,2013-03-29 08:08:00,
2013-03-29 01:16:00,52.0,0.0,30.02,SSW,201,3.0,8.0,37,-99.99,,,-99.99,,2013-03-29 08:16:00,
2013-03-29 01:24:00,52.0,0.0,30.02,West,272,3.0,8.0,38,-99.99,,,-99.99,,2013-03-29 08:24:00,
2013-03-29 01:32:00,50.0,0.0,30.02,SSE,168,3.0,5.0,37,-99.99,,,-99.99,,2013-03-29 08:32:00,
2013-03-29 01:40:00,51.0,0.0,30.02,North,356,2.0,5.0,37,-99.99,,,-99.99,,2013-03-29 08:40:00,
2013-03-29 01:48:00,49.0,0.0,30.02,NW,317,2.0,3.0,39,-99.99,,,-99.99,,2013-03-29 08:48:00,
2013-03-29 01:56:00,50.0,0.0,30.02,SE,135,3.0,3.0,40,-99.99,,,-99.99,,2013-03-29 08:56:00,
2013-03-29 02:04:00,49.0,0.0,30.02,SSE,148,3.0,6.0,38,-99.99,,,-99.99,,2013-03-29 09:04:00,
2013-03-29 02:12:00,51.0,0.0,30.02,SSW,192,2.0,5.0,37,-99.99,,,-99.99,,2013-03-29 09:12:00,
2013-03-29 02:20:00,52.0,0.0,30.02,South,180,5.0,5.0,37,-99.99,,,-99.99,,2013-03-29 09:20:00,
2013-03-29 02:28:00,52.0,0.0,30.02,SSW,198,7.0,7.0,36,-99.99,,,-99.99,,2013-03-29 09:28:00,
2013-03-29 02:36:00,51.0,0.0,30.02,SSW,203,5.0,7.0,37,-99.99,,,-99.99,,2013-03-29 09:36:00,
2013-03-29 02:44:00,51.0,0.0,30.03,SSW,209,5.0,8.0,37,-99.99,,,-99.99,,2013-03-29 09:44:00,
2013-03-29 02:52:00,50.0,0.0,30.03,NW,314,0.0,6.0,41,-99.99,,,-99.99,,2013-03-29 09:52:00,
2013-03-29 03:00:00,48.0,0.0,30.03,NW,320,1.0,2.0,42,-99.99,,,-99.99,,2013-03-29 10:00:00,
2013-03-29 03:08:00,46.0,0.0,30.03,North,360,0.0,2.0,43,-99.99,,,-99.99,,2013-03-29 10:08:00,
2013-03-29 03:16:00,50.0,0.0,30.03,WNW,289,5.0,5.0,36,-99.99,,,-99.99,,2013-03-29 10:16:00,
2013-03-29 03:24:00,50.0,0.0,30.03,WNW,289,6.0,7.0,39,-99.99,,,-99.99,,2013-03-29 10:24:00,
2013-03-29 03:32:00,50.0,0.0,30.03,WNW,297,6.0,7.0,41,-99.99,,,-99.99,,2013-03-29 10:32:00,
2013-03-29 03:40:00,49.0,0.0,30.03,NNW,338,3.0,6.0,38,-99.99,,,-99.99,,2013-03-29 10:40:00,
2013-03-29 03:48:00,47.0,0.0,30.03,North,9,2.0,7.0,42,-99.99,,,-99.99,,2013-03-29 10:48:00,
2013-03-29 03:56:00,47.0,0.0,30.03,NNW,332,3.0,6.0,41,-99.99,,,-99.99,,2013-03-29 10:56:00,
2013-03-29 04:04:00,47.0,0.0,30.04,NNW,336,3.0,3.0,42,-99.99,,,-99.99,,2013-03-29 11:04:00,
2013-03-29 04:12:00,48.0,0.0,30.04,NE,56,1.0,3.0,42,-99.99,,,-99.99,,2013-03-29 11:12:00,
2013-03-29 04:20:00,49.0,0.0,30.04,SW,218,2.0,2.0,42,-99.99,,,-99.99,,2013-03-29 11:20:00,
2013-03-29 04:28:00,47.0,0.0,30.04,South,190,2.0,3.0,43,-99.99,,,-99.99,,2013-03-29 11:28:00,
2013-03-29 04:36:00,46.0,0.0,30.04,West,265,5.0,7.0,42,-99.99,,,-99.99,,2013-03-29 11:36:00,
2013-03-29 04:44:00,45.0,0.0,30.04,West,270,3.0,6.0,47,-99.99,,,-99.99,,2013-03-29 11:44:00,
2013-03-29 04:52:00,44.0,0.0,30.05,SW,231,2.0,5.0,47,-99.99,,,-99.99,,2013-03-29 11:52:00,
2013-03-29 05:00:00,43.0,0.0,30.05,North,361,3.0,5.0,47,-99.99,,,-99.99,,2013-03-29 12:00:00,
2013-03-29 05:08:00,43.0,0.0,30.05,West,268,2.0,3.0,47,-99.99,,,-99.99,,2013-03-29 12:08:00,
2013-03-29 05:16:00,43.0,0.0,30.05,SSW,202,5.0,5.0,47,-99.99,,,-99.99,,2013-03-29 12:16:00,
2013-03-29 05:24:00,46.0,0.0,30.05,WSW,248,3.0,5.0,48,-99.99,,,-99.99,,2013-03-29 12:24:00,
2013-03-29 05:32:00,44.0,0.0,30.05,WSW,241,3.0,5.0,47,-99.99,,,-99.99,,2013-03-29 12:32:00,
2013-03-29 05:40:00,43.0,0.0,30.05,WNW,282,5.0,5.0,44,-99.99,,,-99.99,,2013-03-29 12:40:00,
2013-03-29 05:48:00,41.0,0.0,30.06,West,269,2.0,5.0,48,-99.99,,,-99.99,,2013-03-29 12:48:00,
2013-03-29 05:56:00,42.0,0.0,30.06,NNW,348,3.0,3.0,49,-99.99,,,-99.99,,2013-03-29 12:56:00,
2013-03-29 06:04:00,41.0,0.0,30.06,NNW,340,1.0,3.0,52,-99.99,,,-99.99,,2013-03-29 13:04:00,
2013-03-29 06:12:00,43.0,0.0,30.06,North,361,1.0,3.0,49,-99.99,,,-99.99,,2013-03-29 13:12:00,
2013-03-29 06:20:00,43.0,0.0,30.06,East,87,2.0,3.0,48,-99.99,,,-99.99,,2013-03-29 13:20:00,
2013-03-29 06:28:00,43.0,0.0,30.06,East,94,2.0,3.0,46,-99.99,,,-99.99,,2013-03-29 13:28:00,
2013-03-29 06:36:00,42.0,0.0,30.06,East,90,2.0,2.0,47,-99.99,,,-99.99,,2013-03-29 13:36:00,
2013-03-29 06:44:00,42.0,0.0,30.07,SSE,160,2.0,3.0,50,-99.99,,,-99.99,,2013-03-29 13:44:00,
2013-03-29 06:52:00,40.0,0.0,30.07,West,266,1.0,3.0,49,-99.99,,,-99.99,,2013-03-29 13:52:00,
2013-03-29 07:00:00,40.0,0.0,30.07,WSW,245,2.0,3.0,52,-99.99,,,-99.99,,2013-03-29 14:00:00,
2013-03-29 07:08:00,44.0,0.0,30.08,SW,220,0.0,2.0,48,-99.99,,,-99.99,,2013-03-29 14:08:00,
2013-03-29 07:16:00,45.0,0.0,30.07,South,173,3.0,3.0,45,-99.99,,,-99.99,,2013-03-29 14:16:00,
2013-03-29 07:24:00,46.0,0.0,30.08,SSE,167,5.0,6.0,47,-99.99,,,-99.99,,2013-03-29 14:24:00,
2013-03-29 07:32:00,46.0,0.0,30.08,South,187,5.0,6.0,45,-99.99,,,-99.99,,2013-03-29 14:32:00,
2013-03-29 07:40:00,48.0,0.0,30.09,South,180,3.0,6.0,44,-99.99,,,-99.99,,2013-03-29 14:40:00,
2013-03-29 07:48:00,49.0,0.0,30.08,South,182,6.0,7.0,43,-99.99,,,-99.99,,2013-03-29 14:48:00,
2013-03-29 07:56:00,50.0,0.0,30.09,SSW,213,2.0,7.0,40,-99.99,,,-99.99,,2013-03-29 14:56:00,
2013-03-29 08:04:00,52.0,0.0,30.09,SSW,210,2.0,5.0,41,-99.99,,,-99.99,,2013-03-29 15:04:00,
2013-03-29 08:12:00,52.0,0.0,30.10,SSW,213,2.0,5.0,40,-99.99,,,-99.99,,2013-03-29 15:12:00,
2013-03-29 08:20:00,54.0,0.0,30.10,WNW,302,0.0,5.0,37,-99.99,,,-99.99,,2013-03-29 15:20:00,
2013-03-29 08:28:00,55.0,0.0,30.10,SE,135,0.0,2.0,37,-99.99,,,-99.99,,2013-03-29 15:28:00,
2013-03-29 08:36:00,56.0,0.0,30.10,SSW,204,2.0,2.0,37,-99.99,,,-99.99,,2013-03-29 15:36:00,
2013-03-29 08:44:00,56.0,0.0,30.10,South,177,1.0,2.0,35,-99.99,,,-99.99,,2013-03-29 15:44:00,
2013-03-29 08:52:00,58.0,0.0,30.10,SSW,209,2.0,2.0,37,-99.99,,,-99.99,,2013-03-29 15:52:00,
2013-03-29 09:00:00,60.0,0.0,30.10,SSE,154,2.0,2.0,34,-99.99,,,-99.99,,2013-03-29 16:00:00,
2013-03-29 09:08:00,61.0,0.0,30.10,SSW,193,2.0,3.0,31,-99.99,,,-99.99,,2013-03-29 16:08:00,
2013-03-29 09:16:00,61.0,0.0,30.10,SW,223,2.0,5.0,32,-99.99,,,-99.99,,2013-03-29 16:16:00,
2013-03-29 09:24:00,62.0,0.0,30.11,South,169,3.0,5.0,32,-99.99,,,-99.99,,2013-03-29 16:24:00,
2013-03-29 09:32:00,63.0,0.0,30.11,South,191,2.0,5.0,31,-99.99,,,-99.99,,2013-03-29 16:32:00,
2013-03-29 09:40:00,65.0,0.0,30.11,SW,218,3.0,6.0,30,-99.99,,,-99.99,,2013-03-29 16:40:00,
2013-03-29 09:48:00,66.0,0.0,30.11,SSE,166,2.0,5.0,29,-99.99,,,-99.99,,2013-03-29 16:48:00,
2013-03-29 09:56:00,66.0,0.0,30.11,SE,138,3.0,5.0,27,-99.99,,,-99.99,,2013-03-29 16:56:00,
2013-03-29 10:04:00,66.0,0.0,30.11,SSW,192,1.0,5.0,26,-99.99,,,-99.99,,2013-03-29 17:04:00,
2013-03-29 10:12:00,68.0,0.0,30.11,SSE,158,6.0,9.0,25,-99.99,,,-99.99,,2013-03-29 17:12:00,
2013-03-29 10:20:00,68.0,0.0,30.11,SSE,164,2.0,9.0,26,-99.99,,,-99.99,,2013-03-29 17:20:00,
2013-03-29 10:28:00,69.0,0.0,30.11,SE,133,6.0,8.0,25,-99.99,,,-99.99,,2013-03-29 17:28:00,
2013-03-29 10:36:00,70.0,0.0,30.11,SSW,196,5.0,8.0,24,-99.99,,,-99.99,,2013-03-29 17:36:00,
2013-03-29 10:44:00,70.0,0.0,30.11,SE,139,6.0,12.0,26,-99.99,,,-99.99,,2013-03-29 17:44:00,
2013-03-29 10:52:00,70.0,0.0,30.10,South,186,6.0,12.0,24,-99.99,,,-99.99,,2013-03-29 17:52:00,
2013-03-29 11:00:00,72.0,0.0,30.10,South,173,2.0,10.0,23,-99.99,,,-99.99,,2013-03-29 18:00:00,
2013-03-29 11:08:00,71.0,0.0,30.10,ESE,110,3.0,12.0,25,-99.99,,,-99.99,,2013-03-29 18:08:00,
2013-03-29 11:16:00,72.0,0.0,30.10,SSE,165,8.0,10.0,24,-99.99,,,-99.99,,2013-03-29 18:16:00,
2013-03-29 11:24:00,72.0,0.0,30.10,SE,138,5.0,13.0,23,-99.99,,,-99.99,,2013-03-29 18:24:00,
2013-03-29 11:32:00,73.0,0.0,30.10,SSE,165,5.0,9.0,22,-99.99,,,-99.99,,2013-03-29 18:32:00,
2013-03-29 11:40:00,74.0,0.0,30.09,East,90,7.0,10.0,21,-99.99,,,-99.99,,2013-03-29 18:40:00,
2013-03-29 11:48:00,74.0,0.0,30.09,NE,44,5.0,12.0,22,-99.99,,,-99.99,,2013-03-29 18:48:00,
2013-03-29 11:56:00,75.0,0.0,30.09,SE,125,6.0,13.0,20,-99.99,,,-99.99,,2013-03-29 18:56:00,
2013-03-29 12:04:00,76.0,0.0,30.09,ENE,71,1.0,10.0,20,-99.99,,,-99.99,,2013-03-29 19:04:00,
2013-03-29 12:12:00,76.0,0.0,30.09,South,172,7.0,14.0,21,-99.99,,,-99.99,,2013-03-29 19:12:00,
2013-03-29 12:20:00,76.0,0.0,30.09,SE,143,8.0,12.0,20,-99.99,,,-99.99,,2013-03-29 19:20:00,
2013-03-29 12:28:00,75.0,0.0,30.08,ESE,123,5.0,13.0,21,-99.99,,,-99.99,,2013-03-29 19:28:00,
2013-03-29 12:36:00,76.0,0.0,30.08,SSW,197,9.0,10.0,18,-99.99,,,-99.99,,2013-03-29 19:36:00,
2013-03-29 12:44:00,76.0,0.0,30.08,South,174,14.0,14.0,20,-99.99,,,-99.99,,2013-03-29 19:44:00,
2013-03-29 12:52:00,76.0,0.0,30.08,SSE,159,3.0,14.0,20,-99.99,,,-99.99,,2013-03-29 19:52:00,
2013-03-29 13:00:00,77.0,0.0,30.07,SW,214,8.0,13.0,17,-99.99,,,-99.99,,2013-03-29 20:00:00,
2013-03-29 13:08:00,78.0,0.0,30.07,SE,126,7.0,10.0,17,-99.99,,,-99.99,,2013-03-29 20:08:00,
2013-03-29 13:16:00,78.0,0.0,30.06,South,181,5.0,12.0,17,-99.99,,,-99.99,,2013-03-29 20:16:00,
2013-03-29 13:24:00,78.0,0.0,30.06,South,171,9.0,13.0,17,-99.99,,,-99.99,,2013-03-29 20:24:00,
2013-03-29 13:32:00,79.0,0.0,30.06,South,177,3.0,13.0,16,-99.99,,,-99.99,,2013-03-29 20:32:00,
2013-03-29 13:40:00,79.0,0.0,30.06,South,170,7.0,13.0,18,-99.99,,,-99.99,,2013-03-29 20:40:00,
2013-03-29 13:48:00,79.0,0.0,30.06,SSE,166,6.0,13.0,18,-99.99,,,-99.99,,2013-03-29 20:48:00,
2013-03-29 13:56:00,79.0,0.0,30.05,SW,228,1.0,14.0,17,-99.99,,,-99.99,,2013-03-29 20:56:00,
2013-03-29 14:04:00,79.0,0.0,30.05,SW,232,5.0,14.0,15,-99.99,,,-99.99,,2013-03-29 21:04:00,
2013-03-29 14:12:00,79.0,0.0,30.05,South,191,9.0,13.0,17,-99.99,,,-99.99,,2013-03-29 21:12:00,
2013-03-29 14:20:00,79.0,0.0,30.04,SSW,192,7.0,13.0,17,-99.99,,,-99.99,,2013-03-29 21:20:00,
2013-03-29 14:28:00,79.0,0.0,30.04,SSE,152,8.0,10.0,20,-99.99,,,-99.99,,2013-03-29 21:28:00,
2013-03-29 14:36:00,79.0,0.0,30.04,SSW,194,3.0,8.0,18,-99.99,,,-99.99,,2013-03-29 21:36:00,
2013-03-29 14:44:00,81.0,0.0,30.03,South,178,7.0,12.0,20,-99.99,,,-99.99,,2013-03-29 21:44:00,
2013-03-29 14:52:00,80.0,0.0,30.03,South,188,0.0,9.0,18,-99.99,,,-99.99,,2013-03-29 21:52:00,
2013-03-29 15:00:00,80.0,0.0,30.03,ESE,117,3.0,12.0,18,-99.99,,,-99.99,,2013-03-29 22:00:00,
2013-03-29 15:08:00,80.0,0.0,30.02,South,191,7.0,14.0,18,-99.99,,,-99.99,,2013-03-29 22:08:00,
2013-03-29 15:16:00,80.0,0.0,30.02,SW,236,1.0,9.0,17,-99.99,,,-99.99,,2013-03-29 22:16:00,
2013-03-29 15:24:00,80.0,0.0,30.01,North,6,5.0,9.0,18,-99.99,,,-99.99,,2013-03-29 22:24:00,
2013-03-29 15:32:00,82.0,0.0,30.01,NNW,328,6.0,9.0,18,-99.99,,,-99.99,,2013-03-29 22:32:00,
2013-03-29 15:40:00,81.0,0.0,30.01,ENE,67,0.0,7.0,16,-99.99,,,-99.99,,2013-03-29 22:40:00,
2013-03-29 15:48:00,80.0,0.0,30.00,ESE,106,5.0,14.0,16,-99.99,,,-99.99,,2013-03-29 22:48:00,
2013-03-29 15:56:00,80.0,0.0,30.00,SW,221,2.0,15.0,19,-99.99,,,-99.99,,2013-03-29 22:56:00,
2013-03-29 16:04:00,81.0,0.0,30.00,SSW,192,5.0,9.0,18,-99.99,,,-99.99,,2013-03-29 23:04:00,
2013-03-29 16:12:00,82.0,0.0,30.00,South,189,12.0,15.0,20,-99.99,,,-99.99,,2013-03-29 23:12:00,
2013-03-29 16:20:00,81.0,0.0,30.00,SW,229,6.0,14.0,19,-99.99,,,-99.99,,2013-03-29 23:20:00,
2013-03-29 16:28:00,80.0,0.0,30.00,SW,222,6.0,15.0,16,-99.99,,,-99.99,,2013-03-29 23:28:00,
2013-03-29 16:36:00,81.0,0.0,29.99,SW,227,9.0,10.0,16,-99.99,,,-99.99,,2013-03-29 23:36:00,
2013-03-29 16:44:00,82.0,0.0,29.99,North,354,1.0,16.0,14,-99.99,,,-99.99,,2013-03-29 23:44:00,
2013-03-29 16:52:00,81.0,0.0,29.99,South,176,12.0,16.0,14,-99.99,,,-99.99,,2013-03-29 23:52:00,
2013-03-29 17:00:00,80.0,0.0,29.99,WSW,251,5.0,13.0,15,-99.99,,,-99.99,,2013-03-30 00:00:00,
2013-03-29 17:08:00,80.0,0.0,29.99,South,182,9.0,13.0,15,-99.99,,,-99.99,,2013-03-30 00:08:00,
2013-03-29 17:16:00,81.0,0.0,29.99,SSW,201,8.0,13.0,13,-99.99,,,-99.99,,2013-03-30 00:16:00,
2013-03-29 17:24:00,81.0,0.0,29.98,South,179,8.0,13.0,12,-99.99,,,-99.99,,2013-03-30 00:24:00,
2013-03-29 17:32:00,80.0,0.0,29.99,SSW,199,5.0,13.0,11,-99.99,,,-99.99,,2013-03-30 00:32:00,
2013-03-29 17:40:00,79.0,0.0,29.99,SW,214,3.0,12.0,16,-99.99,,,-99.99,,2013-03-30 00:40:00,
2013-03-29 17:48:00,79.0,0.0,29.99,SSE,162,6.0,12.0,14,-99.99,,,-99.99,,2013-03-30 00:48:00,
2013-03-29 17:56:00,79.0,0.0,29.99,South,175,5.0,10.0,16,-99.99,,,-99.99,,2013-03-30 00:56:00,
2013-03-29 18:04:00,80.0,0.0,29.99,SSE,167,7.0,8.0,11,-99.99,,,-99.99,,2013-03-30 01:04:00,
2013-03-29 18:12:00,80.0,0.0,29.99,South,181,6.0,10.0,13,-99.99,,,-99.99,,2013-03-30 01:12:00,
2013-03-29 18:20:00,80.0,0.0,29.99,SSW,193,8.0,13.0,14,-99.99,,,-99.99,,2013-03-30 01:20:00,
2013-03-29 18:28:00,79.0,0.0,29.98,South,182,10.0,13.0,13,-99.99,,,-99.99,,2013-03-30 01:28:00,
2013-03-29 18:36:00,78.0,0.0,29.99,South,187,9.0,13.0,12,-99.99,,,-99.99,,2013-03-30 01:36:00,
2013-03-29 18:44:00,78.0,0.0,29.99,South,186,6.0,10.0,16,-99.99,,,-99.99,,2013-03-30 01:44:00,
2013-03-29 18:52:00,77.0,0.0,29.99,South,179,5.0,9.0,12,-99.99,,,-99.99,,2013-03-30 01:52:00,
2013-03-29 19:00:00,76.0,0.0,29.99,South,180,5.0,7.0,14,-99.99,,,-99.99,,2013-03-30 02:00:00,
2013-03-29 19:08:00,75.0,0.0,29.99,South,184,5.0,6.0,15,-99.99,,,-99.99,,2013-03-30 02:08:00,
2013-03-29 19:16:00,74.0,0.0,29.99,South,186,5.0,7.0,16,-99.99,,,-99.99,,2013-03-30 02:16:00,
2013-03-29 19:24:00,38.0,0.0,29.99,South,187,5.0,6.0,17,-99.99,,,-99.99,,2013-03-30 02:24:00,
2013-03-29 19:32:00,37.0,0.0,29.99,South,190,6.0,6.0,17,-99.99,,,-99.99,,2013-03-30 02:32:00,
2013-03-29 19:40:00,72.0,0.0,29.99,SSW,199,6.0,7.0,16,-99.99,,,-99.99,,2013-03-30 02:40:00,
2013-03-29 19:48:00,71.0,0.0,30.00,SSW,203,5.0,7.0,18,-99.99,,,-99.99,,2013-03-30 02:48:00,
2013-03-29 19:56:00,71.0,0.0,30.00,SSW,197,3.0,6.0,17,-99.99,,,-99.99,,2013-03-30 02:56:00,
2013-03-29 20:04:00,71.0,0.0,30.00,South,190,3.0,5.0,19,-99.99,,,-99.99,,2013-03-30 03:04:00,
2013-03-29 20:12:00,71.0,0.0,30.00,South,178,3.0,5.0,17,-99.99,,,-99.99,,2013-03-30 03:12:00,
2013-03-29 20:20:00,69.0,0.0,30.00,SSE,166,3.0,5.0,19,-99.99,,,-99.99,,2013-03-30 03:20:00,
2013-03-29 20:28:00,68.0,0.0,30.01,SSE,147,2.0,3.0,20,-99.99,,,-99.99,,2013-03-30 03:28:00,
2013-03-29 20:36:00,68.0,0.0,30.01,SE,130,2.0,2.0,17,-99.99,,,-99.99,,2013-03-30 03:36:00,
2013-03-29 20:44:00,66.0,0.0,30.01,West,278,2.0,5.0,18,-99.99,,,-99.99,,2013-03-30 03:44:00,
2013-03-29 20:52:00,68.0,0.0,30.01,SSW,208,1.0,5.0,20,-99.99,,,-99.99,,2013-03-30 03:52:00,
2013-03-29 21:00:00,68.0,0.0,30.01,South,170,5.0,5.0,19,-99.99,,,-99.99,,2013-03-30 04:00:00,
2013-03-29 21:04:00,67.0,0.0,30.01,South,175,3.0,5.0,18,-99.99,,,-99.99,,2013-03-30 04:04:00,
2013-03-29 21:12:00,68.0,0.0,30.01,South,175,2.0,5.0,21,-99.99,,,-99.99,,2013-03-30 04:12:00,
2013-03-29 21:20:00,67.0,0.0,30.02,SSW,197,3.0,3.0,19,-99.99,,,-99.99,,2013-03-30 04:20:00,
2013-03-29 21:24:00,66.0,0.0,30.02,South,184,1.0,3.0,20,-99.99,,,-99.99,,2013-03-30 04:24:00,
2013-03-29 21:32:00,64.0,0.0,30.02,North,361,0.0,2.0,19,-99.99,,,-99.99,,2013-03-30 04:32:00,
2013-03-29 21:40:00,63.0,0.0,30.02,ESE,106,2.0,2.0,20,-99.99,,,-99.99,,2013-03-30 04:40:00,
2013-03-29 21:48:00,64.0,0.0,30.02,SSE,159,3.0,5.0,22,-99.99,,,-99.99,,2013-03-30 04:48:00,
2013-03-29 21:56:00,65.0,0.0,30.02,SE,139,5.0,8.0,25,-99.99,,,-99.99,,2013-03-30 04:56:00,
2013-03-29 22:04:00,62.0,0.0,30.03,SE,127,5.0,7.0,25,-99.99,,,-99.99,,2013-03-30 05:04:00,
2013-03-29 22:12:00,62.0,0.0,30.03,SW,221,3.0,6.0,28,-99.99,,,-99.99,,2013-03-30 05:12:00,
2013-03-29 22:20:00,63.0,0.0,30.03,SSW,206,2.0,9.0,37,-99.99,,,-99.99,,2013-03-30 05:20:00,
2013-03-29 22:28:00,65.0,0.0,30.03,SSW,200,3.0,12.0,34,-99.99,,,-99.99,,2013-03-30 05:28:00,
2013-03-29 22:36:00,64.0,0.0,30.03,SSW,203,3.0,9.0,35,-99.99,,,-99.99,,2013-03-30 05:36:00,
2013-03-29 22:44:00,63.0,0.0,30.03,WSW,248,2.0,6.0,37,-99.99,,,-99.99,,2013-03-30 05:44:00,
2013-03-29 22:52:00,64.0,0.0,30.03,SSW,212,1.0,7.0,39,-99.99,,,-99.99,,2013-03-30 05:52:00,
2013-03-29 23:00:00,64.0,0.0,30.03,SSE,159,5.0,7.0,38,-99.99,,,-99.99,,2013-03-30 06:00:00,
2013-03-29 23:08:00,66.0,0.0,30.03,South,172,7.0,12.0,37,-99.99,,,-99.99,,2013-03-30 06:08:00,
2013-03-29 23:16:00,66.0,0.0,30.03,South,170,6.0,12.0,39,-99.99,,,-99.99,,2013-03-30 06:16:00,
2013-03-29 23:24:00,65.0,0.0,30.03,South,174,5.0,8.0,39,-99.99,,,-99.99,,2013-03-30 06:24:00,
2013-03-29 23:32:00,64.0,0.0,30.03,East,93,5.0,7.0,39,-99.99,,,-99.99,,2013-03-30 06:32:00,
2013-03-29 23:40:00,63.0,0.0,30.04,SE,126,5.0,7.0,41,-99.99,,,-99.99,,2013-03-30 06:40:00,
2013-03-29 23:48:00,64.0,0.0,30.04,SE,127,5.0,8.0,40,-99.99,,,-99.99,,2013-03-30 06:48:00,
2013-03-29 23:56:00,64.0,0.0,30.04,SE,133,5.0,6.0,40,-99.99,,,-99.99,,2013-03-30 06:56:00,